Theta_e
303 305 305 303 302 303 302 304 300 302 301 307 310 309 311 311 311 312 312 312 314 316 317 316 316 315 314 315 316 312 312 312 311 310 310 311 312 313 310 310 307 308 310 309
303 305 305 302 304 304 304 303 303 303 304 310 311 311 310 311 312 312 312 312 314 316 316 315 316 315 314 313 311 314 312 310 309 309 309 311 312 309 308 307 307 308 309 309
300 303 303 300 304 305 305 306 305 302 307 311 311 310 312 313 313 313 313 314 315 316 317 318 316 313 314 312 313 310 310 308 308 308 309 311 309 307 306 305 305 308 309 309
302 302 294 304 308 309 307 310 311 310 310 310 311 313 314 315 312 313 313 315 317 318 319 318 315 314 313 312 310 309 308 307 308 308 309 309 306 305 305 308 307 306 309 308
301 300 302 306 308 309 308 307 312 311 311 311 313 314 314 316 317 316 317 318 318 320 318 316 314 313 313 311 309 308 307 307 307 308 308 305 303 303 304 306 306 307 308 306
303 298 295 306 309 313 311 303 311 314 312 312 313 307 311 316 316 317 319 320 319 320 317 315 312 313 311 309 308 307 306 307 309 309 304 304 305 303 303 304 305 307 305 306
301 300 303 311 311 312 301 306 312 314 315 314 312 313 315 316 317 318 319 319 320 320 316 313 313 312 307 308 307 307 308 308 310 305 304 305 305 304 303 303 305 307 307 306
302 299 295 312 310 307 313 313 316 315 316 315 315 313 314 315 316 316 317 318 320 318 314 312 311 310 308 307 307 307 308 309 306 307 305 306 304 304 305 304 304 304 305 303
307 305 312 313 313 316 314 315 316 315 315 314 313 313 314 314 315 316 316 317 319 316 312 310 310 310 308 307 307 308 309 308 307 308 306 307 304 304 302 305 303 304 305 302
308 311 311 314 316 317 317 316 317 317 315 314 314 314 313 315 316 316 316 316 318 316 312 309 309 309 308 308 308 309 309 308 307 306 307 307 305 304 302 302 306 306 305 302
308 311 313 315 317 318 317 318 318 316 315 315 315 314 314 315 316 317 317 317 318 314 312 309 309 309 308 308 309 309 309 307 303 303 304 305 304 299 301 300 300 307 306 307
304 315 316 315 319 319 316 314 316 315 314 316 316 315 316 317 318 317 316 317 316 312 310 309 309 308 308 309 310 310 308 304 303 304 304 306 308 307 293 293 292 292 293 300
310 312 315 316 315 316 314 315 315 315 316 316 316 316 317 317 317 314 317 317 314 311 311 310 309 307 308 309 311 310 308 305 306 305 307 306 307 306 304 302 294 293 292 293
311 312 310 311 311 315 316 315 314 316 317 316 316 318 318 317 317 317 316 315 312 311 311 310 308 307 308 310 311 311 308 300 309 308 307 307 307 306 307 306 305 306 299 297
310 311 311 314 315 314 314 314 313 313 313 313 314 314 315 314 315 316 316 313 312 311 310 309 307 307 309 310 311 310 308 309 311 310 307 306 308 306 306 307 308 307 310 304
310 310 311 312 312 311 312 313 312 311 312 312 313 314 316 316 317 317 316 313 312 311 310 308 307 308 310 311 310 311 308 298 301 311 309 308 305 303 301 302 301 304 309 311
307 307 309 309 310 311 312 312 312 310 311 312 313 313 314 314 316 316 316 314 312 312 311 309 308 308 309 311 310 312 307 307 298 311 310 308 309 306 306 306 308 306 306 306
312 313 313 313 311 311 311 311 311 311 311 310 311 310 312 313 313 314 314 312 311 310 309 307 310 309 309 310 311 312 311 305 308 311 311 307 303 306 311 312 312 312 311 306
311 311 311 312 313 313 312 311 311 312 311 310 309 308 311 314 313 313 312 311 310 307 306 309 300 306 308 307 308 312 310 308 306 310 311 301 304 304 311 314 313 314 313 313
309 311 313 313 313 312 311 312 313 310 310 310 310 309 308 311 313 312 312 312 312 310 309 310 310 309 308 307 300 311 310 307 305 309 312 311 306 311 308 302 313 315 314 314
310 312 311 311 310 311 311 311 310 309 310 310 309 308 308 310 312 312 313 313 312 309 308 301 309 307 308 305 307 311 310 308 305 307 312 312 313 313 311 312 315 314 313 314
311 310 309 309 309 310 311 312 312 311 311 310 310 309 308 308 309 309 312 311 314 295 304 304 305 296 303 293 311 311 311 308 304 306 309 313 310 307 306 310 313 315 314 315
310 309 308 308 309 310 311 312 312 312 311 310 309 308 305 305 308 306 308 309 311 300 304 303 290 285 286 308 309 308 309 309 305 304 306 309 313 312 307 313 315 317 318 317
308 308 308 308 307 305 304 307 311 312 312 310 308 307 307 306 308 312 313 300 292 296 300 294 291 285 287 307 307 307 308 309 306 304 305 296 313 314 315 316 314 312 313 312
304 304 303 302 303 303 303 304 308 311 311 309 308 307 308 311 307 310 308 304 293 298 300 287 287 286 306 307 306 307 308 309 309 304 304 304 309 309 309 314 313 314 315 316
308 306 306 304 304 305 305 306 309 312 310 309 309 309 311 311 311 307 305 300 304 297 301 299 301 305 307 306 306 306 305 305 308 310 303 303 306 305 307 307 310 309 314 313
305 298 306 306 306 307 307 307 308 310 307 308 307 310 308 309 310 307 300 306 305 302 302 302 304 304 308 308 305 303 305 306 299 307 310 305 306 309 307 311 308 308 314 306
Wind_Speed
2 3 2 2 2 5 4 3 5 8 6 10 9 7 6 3 2 4 4 4 8 9 9 9 8 5 5 2 2 2 4 7 10 11 10 10 10 11 11 9 7 7 8 7
3 1 1 2 3 3 3 2 7 7 8 5 5 3 3 4 5 6 6 7 10 11 11 12 9 8 5 2 3 1 6 8 10 10 10 10 10 11 9 8 7 8 7 6
2 1 2 4 3 2 3 4 3 6 4 8 4 5 6 8 6 8 8 10 12 12 13 11 10 4 2 4 5 3 6 9 9 9 10 11 10 8 8 7 7 9 6 5
3 2 4 2 3 4 7 10 7 6 4 2 2 4 9 10 7 8 8 10 12 11 11 10 7 3 5 5 5 4 7 9 8 9 11 10 8 7 8 7 7 6 6 4
2 3 3 4 5 5 6 7 3 5 1 0 2 2 7 10 8 7 7 8 9 8 8 7 4 4 5 5 4 6 8 8 9 10 10 8 8 10 8 8 6 5 4 5
3 4 7 4 2 3 3 7 2 2 2 1 2 4 5 9 10 10 10 9 10 11 8 5 4 5 6 4 5 7 7 8 9 9 6 9 10 8 7 6 5 2 5 6
3 5 5 6 3 3 4 3 3 1 2 1 3 4 3 5 7 8 7 9 10 10 7 4 5 5 5 4 6 6 6 7 8 6 7 9 8 7 6 5 4 6 7 7
2 3 8 1 5 5 2 2 2 2 2 5 5 4 3 5 7 8 10 12 13 11 7 4 5 4 4 5 5 5 6 6 7 7 8 7 8 7 7 5 6 6 6 5
6 2 1 2 2 4 3 2 2 3 3 5 4 4 3 5 7 9 13 13 12 9 3 5 5 4 4 5 5 5 6 7 4 8 7 8 7 8 5 5 4 5 5 4
3 3 6 4 5 6 2 1 4 4 4 4 4 2 3 5 8 10 12 12 11 9 2 5 5 4 4 4 5 5 6 6 6 7 7 7 6 6 5 4 5 5 5 4
4 5 5 5 7 4 4 5 5 3 4 4 3 3 4 6 8 10 12 13 11 8 2 6 5 4 4 5 4 5 6 6 5 4 5 5 6 6 4 4 3 4 4 4
6 5 3 2 5 7 7 6 5 5 4 5 5 4 5 6 7 9 12 13 11 5 5 7 5 4 4 4 4 5 5 4 4 3 3 3 3 5 6 4 3 3 2 4
1 3 3 4 5 6 7 6 6 5 5 4 4 5 5 6 7 9 12 12 8 3 6 6 5 4 4 4 5 6 5 3 3 3 3 3 3 5 4 4 3 8 7 6
4 8 4 6 5 7 8 8 8 8 6 5 5 5 6 7 9 10 10 9 5 5 6 5 4 4 4 4 5 6 4 2 3 3 3 3 3 5 3 4 5 4 7 6
8 3 1 7 9 8 8 8 7 6 5 5 6 8 9 10 9 9 8 5 2 5 6 5 4 4 3 3 5 6 3 2 2 3 4 2 4 5 2 4 4 5 4 5
10 8 5 10 11 9 9 7 6 5 5 6 7 8 9 8 8 7 6 1 4 4 5 4 4 4 2 3 4 5 3 3 2 2 2 3 4 2 2 2 2 3 3 4
8 7 8 9 10 10 8 7 6 5 5 5 7 9 9 8 8 8 6 2 3 5 6 5 5 4 3 3 4 3 2 2 0 2 2 2 3 1 2 2 1 1 2 4
7 10 14 14 14 12 9 7 6 4 3 3 5 7 7 7 8 9 6 4 5 6 6 5 4 4 4 3 3 3 3 0 2 2 2 1 2 3 4 3 1 2 4 5
7 9 11 13 12 11 9 7 5 4 2 4 6 8 7 7 8 6 2 3 4 5 5 5 6 3 4 3 2 3 3 1 1 2 2 3 1 2 3 2 2 1 3 4
7 10 14 14 11 10 9 7 6 4 3 4 6 7 9 9 8 6 2 1 1 2 7 7 5 4 4 4 2 3 3 1 1 2 2 3 2 2 1 3 2 1 3 4
11 14 15 14 11 9 8 7 6 4 3 4 6 7 8 8 7 6 2 2 4 4 5 7 4 3 3 1 3 2 4 1 1 1 3 3 2 1 2 2 1 1 3 3
13 13 12 12 11 8 6 5 4 3 2 5 6 6 8 8 7 5 3 5 2 4 4 3 2 2 1 3 2 0 2 2 0 0 2 2 2 1 1 2 3 1 3 4
11 11 11 10 9 8 7 4 3 1 2 4 6 7 5 5 5 4 3 3 3 4 3 3 3 1 2 3 1 1 1 1 1 1 1 2 2 2 1 3 2 2 2 3
9 8 7 6 5 3 3 2 5 4 1 2 4 4 4 4 5 2 3 3 7 4 4 2 1 2 4 1 1 1 1 0 2 2 1 3 1 2 0 1 2 3 3 3
8 6 4 1 3 5 4 4 4 4 3 3 3 4 4 3 3 3 1 3 6 3 3 2 2 3 1 0 1 1 2 2 2 1 1 2 3 3 2 2 1 2 3 2
5 4 4 3 3 3 4 2 5 2 2 3 2 2 2 2 2 0 2 3 3 3 2 2 2 2 1 1 1 1 1 0 2 0 1 1 2 2 3 2 2 3 4 4
2 3 2 3 4 1 0 2 4 6 2 3 3 2 1 3 1 2 3 3 2 2 2 2 2 1 1 2 2 1 2 2 1 3 1 1 2 1 2 3 2 2 4 5
Wind_Direction
90 89 156 161 175 179 236 280 261 322 283 298 350 338 340 322 258 258 279 263 250 257 267 276 288 295 263 290 327 50 318 320 317 315 318 320 320 321 320 316 301 297 309 308
145 102 9 248 263 255 241 243 259 276 285 6 327 310 310 284 287 298 281 266 263 273 309 320 307 272 266 226 104 23 335 318 316 322 326 326 324 332 321 312 308 307 315 320
172 4 359 272 228 210 278 243 261 272 344 324 330 18 14 349 322 308 332 334 333 323 310 306 292 291 261 115 101 20 322 321 326 330 327 328 336 325 316 315 315 320 314 358
126 166 245 16 251 276 265 281 248 262 281 322 359 12 40 22 355 349 343 341 338 337 330 325 336 53 101 102 72 355 325 334 337 334 332 339 332 322 314 317 325 323 21 23
204 212 332 237 210 200 203 282 226 242 192 201 324 274 74 26 21 16 353 345 338 335 322 347 28 127 113 80 31 342 346 346 345 339 342 337 338 335 336 333 333 17 29 41
162 227 269 286 142 151 162 279 172 223 230 325 340 309 46 5 8 5 6 2 343 330 342 4 72 103 92 57 1 358 2 349 348 357 352 344 347 334 330 324 335 32 64 46
169 249 276 252 162 154 228 303 158 189 360 66 12 38 16 5 21 10 354 338 329 337 358 41 123 125 92 34 19 13 355 355 4 15 358 355 350 349 331 336 43 61 59 43
149 263 282 82 132 222 15 167 153 122 97 100 104 94 47 24 7 356 353 348 345 352 12 85 124 113 74 42 30 16 7 9 31 15 14 11 4 2 18 23 56 59 59 34
206 262 28 257 275 304 241 247 169 138 117 103 117 79 42 7 359 360 360 350 355 356 27 123 126 92 57 51 32 20 17 33 35 35 28 27 18 29 30 38 50 60 60 35
212 198 255 258 243 247 222 298 111 109 118 107 111 100 33 357 6 2 357 347 353 347 17 133 131 96 60 48 33 23 30 50 42 38 30 27 19 40 45 37 52 65 61 41
246 261 265 240 231 217 140 125 133 132 113 123 122 57 2 357 359 355 346 350 351 350 72 129 131 102 59 52 23 39 59 60 54 43 31 20 61 24 21 39 1 48 53 47
252 201 225 162 167 153 149 165 152 134 127 81 59 27 350 342 359 351 343 349 348 15 124 129 130 106 68 57 36 40 72 64 48 49 38 5 45 86 70 23 347 53 9 347
264 179 199 139 144 159 156 137 121 96 68 87 47 360 336 338 349 331 346 350 353 57 120 127 127 96 73 57 45 59 71 77 75 51 34 22 48 62 70 116 134 67 45 53
218 143 130 186 172 156 137 121 105 92 82 61 17 356 343 338 331 332 352 341 356 111 120 127 122 85 84 76 65 73 87 82 66 52 51 47 60 76 57 79 70 58 60 49
213 222 318 138 135 126 126 133 113 84 49 26 7 352 338 326 318 324 340 341 102 127 130 137 118 89 91 85 71 69 81 76 67 64 54 51 81 87 75 61 65 77 116 127
207 193 157 169 147 143 137 126 107 76 34 9 350 341 331 318 311 328 338 295 178 157 141 135 104 90 89 84 63 87 78 91 16 96 96 103 84 44 335 18 19 14 39 54
147 163 166 165 158 149 132 112 105 75 28 358 339 326 322 327 327 345 349 195 164 134 141 147 128 126 108 79 42 80 80 113 223 153 106 58 85 49 298 329 16 45 41 52
233 209 188 172 161 148 139 130 111 98 71 4 350 351 352 356 344 336 349 151 140 132 135 139 135 127 109 107 42 79 91 136 223 180 142 77 41 349 328 298 335 96 117 101
189 170 162 153 152 145 141 132 120 112 79 13 5 8 360 358 352 347 11 172 166 150 154 157 141 146 112 98 340 76 73 101 216 229 178 129 200 290 338 347 103 109 97 113
171 165 150 139 137 140 133 131 139 143 69 14 5 6 6 2 357 355 346 173 159 80 155 146 164 127 130 127 266 70 92 77 176 253 209 211 171 252 59 346 307 126 138 144
159 153 147 144 139 135 140 150 160 134 78 26 8 3 356 352 354 345 327 242 154 150 143 145 150 148 162 211 263 100 71 98 110 259 259 213 194 310 36 7 50 164 160 162
154 150 144 140 140 143 154 169 174 142 28 3 358 354 350 355 351 333 320 321 61 156 135 123 137 76 112 248 295 242 73 83 50 117 284 246 163 220 40 313 349 66 172 174
144 142 143 149 160 161 160 185 224 226 312 353 346 347 343 322 320 323 330 66 118 140 126 111 102 134 251 229 300 327 256 82 95 76 310 287 230 194 224 296 322 331 233 202
132 132 131 129 168 166 75 289 252 233 270 336 323 333 320 324 331 333 323 127 118 138 110 114 134 228 274 46 303 229 162 101 99 79 28 307 270 249 270 330 13 1 334 297
99 99 105 161 87 58 14 342 265 230 241 278 305 338 311 306 284 323 120 135 145 152 130 150 231 256 203 356 266 200 164 199 112 116 59 352 328 7 355 351 24 10 305 307
122 118 111 94 13 34 29 24 284 261 262 288 300 332 317 319 23 32 146 174 168 162 149 168 231 218 94 100 115 103 97 293 275 168 142 353 11 344 307 335 332 330 315 337
146 236 186 231 243 244 15 225 272 275 249 275 289 269 237 262 248 231 190 188 186 185 171 187 196 156 205 159 165 214 253 260 234 293 278 228 292 314 302 306 293 306 323 340